�������l�o���
Date,Time,MP-1(��Sv/h),MP-2(��Sv/h),MP-3(��Sv/h),MP-4(��Sv/h),MP-5(��Sv/h),MP-6(��Sv/h),MP-7(��Sv/h),MP-8(��Sv/h),����,����(m/s),���J
2017/03/13,00:00,1.056,1.744,1.184,2.067,1.447,0.554,1.022,0.947,��,5.3,��
2017/03/13,00:10,1.055,1.744,1.182,2.068,1.448,0.556,1.021,0.947,��,5.1,��
2017/03/13,00:20,1.056,1.742,1.178,2.066,1.443,0.554,1.021,0.946,��,5.1,��
2017/03/13,00:30,1.058,1.743,1.179,2.067,1.446,0.554,1.018,0.947,��,5.5,��
2017/03/13,00:40,1.057,1.740,1.180,2.067,1.444,0.555,1.020,0.946,��,6.0,��
2017/03/13,00:50,1.058,1.743,1.180,2.069,1.445,0.555,1.019,0.946,��,6.1,��
2017/03/13,01:00,1.056,1.743,1.181,2.068,1.445,0.553,1.021,0.946,��,5.9,��
2017/03/13,01:10,1.056,1.742,1.178,2.070,1.443,0.554,1.022,0.948,��,6.1,��
2017/03/13,01:20,1.059,1.745,1.182,2.069,1.446,0.554,1.022,0.947,��,5.9,��
2017/03/13,01:30,1.058,1.740,1.183,2.071,1.444,0.553,1.021,0.948,��,5.6,��
2017/03/13,01:40,1.057,1.743,1.181,2.070,1.443,0.557,1.022,0.947,��,5.4,��
2017/03/13,01:50,1.059,1.744,1.182,2.067,1.445,0.555,1.019,0.949,��,5.1,��
2017/03/13,02:00,1.057,1.743,1.181,2.069,1.446,0.554,1.022,0.948,��,4.7,��
2017/03/13,02:10,1.057,1.745,1.182,2.070,1.449,0.554,1.022,0.949,��,3.6,��
2017/03/13,02:20,1.060,1.743,1.181,2.067,1.447,0.552,1.022,0.948,��,4.2,��
2017/03/13,02:30,1.058,1.742,1.182,2.071,1.445,0.554,1.023,0.948,��,4.4,��
2017/03/13,02:40,1.059,1.745,1.183,2.069,1.446,0.555,1.023,0.946,��,3.5,��
2017/03/13,02:50,1.058,1.744,1.180,2.071,1.447,0.555,1.022,0.947,��,3.3,��
2017/03/13,03:00,1.058,1.744,1.182,2.070,1.448,0.554,1.022,0.949,��,2.9,��
2017/03/13,03:10,1.055,1.741,1.183,2.071,1.445,0.555,1.020,0.950,��쓌,2.6,��
2017/03/13,03:20,1.058,1.745,1.182,2.069,1.446,0.555,1.023,0.948,��,3.4,��
2017/03/13,03:30,1.057,1.743,1.184,2.070,1.448,0.556,1.023,0.948,��,3.9,��
2017/03/13,03:40,1.059,1.744,1.184,2.072,1.444,0.555,1.021,0.948,��,3.4,��
2017/03/13,03:50,1.059,1.743,1.182,2.070,1.445,0.554,1.022,0.948,��,3.7,��
2017/03/13,04:00,1.061,1.744,1.185,2.070,1.443,0.554,1.021,0.948,��,3.8,��
2017/03/13,04:10,1.057,1.741,1.184,2.070,1.444,0.556,1.022,0.945,��,3.5,��
2017/03/13,04:20,1.060,1.743,1.181,2.069,1.445,0.555,1.022,0.947,��쓌,3.6,��
2017/03/13,04:30,1.059,1.743,1.183,2.071,1.445,0.554,1.020,0.948,��쓌,4.2,��
2017/03/13,04:40,1.058,1.745,1.183,2.066,1.445,0.556,1.022,0.947,��쓌,4.1,��
2017/03/13,04:50,1.060,1.742,1.183,2.075,1.448,0.557,1.021,0.949,��쓌,4.3,��
2017/03/13,05:00,1.060,1.744,1.183,2.072,1.451,0.556,1.024,0.950,��쓌,4.2,��
2017/03/13,05:10,1.058,1.742,1.183,2.071,1.442,0.556,1.024,0.948,��쓌,3.7,��
2017/03/13,05:20,1.058,1.743,1.185,2.072,1.450,0.555,1.021,0.948,��쓌,4.1,��
2017/03/13,05:30,1.060,1.745,1.182,2.071,1.449,0.556,1.022,0.948,��쓌,4.0,��
2017/03/13,05:40,1.057,1.742,1.182,2.072,1.446,0.555,1.022,0.947,��쓌,4.6,��
2017/03/13,05:50,1.060,1.744,1.183,2.071,1.445,0.554,1.024,0.947,��쓌,3.7,��
2017/03/13,06:00,1.058,1.742,1.184,2.070,1.447,0.554,1.022,0.949,��쓌,4.4,��
2017/03/13,06:10,1.059,1.744,1.185,2.074,1.445,0.553,1.023,0.946,��쓌,3.8,��
2017/03/13,06:20,1.057,1.743,1.184,2.070,1.446,0.555,1.023,0.948,��,3.8,��
2017/03/13,06:30,1.061,1.742,1.183,2.070,1.445,0.554,1.024,0.948,��,4.1,��
2017/03/13,06:40,1.061,1.743,1.183,2.072,1.446,0.555,1.021,0.946,��,3.8,��
2017/03/13,06:50,1.058,1.743,1.183,2.069,1.449,0.555,1.022,0.947,��,4.0,��
2017/03/13,07:00,1.060,1.745,1.183,2.070,1.446,0.555,1.022,0.948,��,4.3,��
2017/03/13,07:10,1.060,1.743,1.182,2.072,1.447,0.554,1.024,0.948,��쓌,3.8,��
2017/03/13,07:20,1.059,1.744,1.184,2.072,1.445,0.556,1.024,0.950,��쓌,3.8,��
2017/03/13,07:30,1.060,1.742,1.183,2.074,1.446,0.555,1.022,0.949,��쓌,4.0,��
2017/03/13,07:40,1.061,1.746,1.181,2.073,1.449,0.555,1.023,0.948,��,3.6,��
2017/03/13,07:50,1.061,1.743,1.184,2.072,1.447,0.555,1.025,0.949,��,3.5,��
2017/03/13,08:00,1.061,1.745,1.182,2.072,1.446,0.555,1.024,0.948,��,3.8,��
2017/03/13,08:10,1.060,1.743,1.185,2.075,1.447,0.556,1.022,0.948,��,3.4,��
2017/03/13,08:20,1.062,1.745,1.186,2.070,1.449,0.555,1.024,0.948,��,2.6,��
2017/03/13,08:30,1.059,1.740,1.184,2.072,1.447,0.556,1.024,0.950,��,4.4,��
2017/03/13,08:40,1.060,1.744,1.184,2.073,1.446,0.554,1.023,0.947,��,3.1,��
2017/03/13,08:50,1.060,1.742,1.184,2.072,1.448,0.555,1.023,0.949,��쓌,3.9,��
2017/03/13,09:00,1.060,1.745,1.185,2.073,1.449,0.554,1.022,0.949,��쓌,5.3,��
2017/03/13,09:10,1.062,1.747,1.187,2.074,1.448,0.556,1.021,0.948,��쓌,5.7,��
2017/03/13,09:20,1.061,1.741,1.185,2.073,1.448,0.555,1.023,0.951,��쓌,5.7,��
2017/03/13,09:30,1.060,1.744,1.185,2.074,1.447,0.555,1.021,0.949,��쓌,5.8,��
2017/03/13,09:40,1.061,1.747,1.185,2.072,1.449,0.554,1.022,0.949,��쓌,5.3,��
2017/03/13,09:50,1.061,1.742,1.183,2.073,1.449,0.556,1.022,0.949,��쓌,6.3,��
2017/03/13,10:00,1.063,1.744,1.182,2.074,1.449,0.556,1.024,0.948,��쓌,5.9,��
2017/03/13,10:10,1.063,1.746,1.187,2.075,1.450,0.554,1.023,0.949,��쓌,6.2,��
2017/03/13,10:20,1.060,1.747,1.185,2.075,1.450,0.556,1.022,0.947,��쓌,5.7,��
2017/03/13,10:30,1.062,1.746,1.183,2.072,1.450,0.556,1.023,0.951,��쓌,6.4,��
2017/03/13,10:40,1.064,1.745,1.187,2.073,1.451,0.555,1.023,0.951,��쓌,6.2,��
2017/03/13,10:50,1.062,1.750,1.186,2.076,1.451,0.556,1.024,0.950,��쓌,5.3,��
2017/03/13,11:00,1.062,1.752,1.184,2.074,1.449,0.556,1.021,0.949,��쓌,6.4,��
2017/03/13,11:10,1.064,1.749,1.185,2.075,1.450,0.556,1.023,0.950,��쓌,6.0,��
2017/03/13,11:20,1.062,1.752,1.186,2.078,1.451,0.556,1.023,0.949,�쓌,6.1,��
2017/03/13,11:30,1.065,1.750,1.186,2.077,1.450,0.557,1.020,0.951,��쓌,6.1,��
2017/03/13,11:40,1.065,1.750,1.186,2.075,1.448,0.557,1.023,0.950,��쓌,6.4,��
2017/03/13,11:50,1.065,1.751,1.184,2.077,1.449,0.556,1.022,0.949,��쓌,6.0,��
2017/03/13,12:00,1.062,1.752,1.186,2.077,1.450,0.557,1.021,0.950,��쓌,5.9,��
2017/03/13,12:10,1.067,1.750,1.190,2.078,1.448,0.558,1.020,0.949,��쓌,7.3,��
2017/03/13,12:20,1.065,1.749,1.187,2.075,1.446,0.557,1.022,0.950,��쓌,7.0,��
2017/03/13,12:30,1.064,1.750,1.185,2.080,1.450,0.558,1.023,0.950,��쓌,6.2,��
2017/03/13,12:40,1.068,1.753,1.188,2.076,1.449,0.557,1.024,0.950,��쓌,7.4,��
2017/03/13,12:50,1.065,1.754,1.186,2.076,1.454,0.557,1.022,0.951,��쓌,7.8,��
2017/03/13,13:00,1.066,1.748,1.187,2.078,1.452,0.559,1.022,0.951,��쓌,8.0,��
2017/03/13,13:10,1.066,1.750,1.187,2.077,1.454,0.559,1.022,0.951,�쓌,7.0,��
2017/03/13,13:20,1.066,1.749,1.186,2.076,1.452,0.557,1.022,0.949,��쓌,6.2,��
2017/03/13,13:30,1.064,1.755,1.187,2.077,1.451,0.558,1.023,0.951,�쓌,7.4,��
2017/03/13,13:40,1.066,1.753,1.184,2.078,1.451,0.559,1.021,0.949,�쓌,6.4,��
2017/03/13,13:50,1.064,1.750,1.190,2.078,1.450,0.558,1.022,0.949,��쓌,7.2,��
2017/03/13,14:00,1.065,1.751,1.190,2.075,1.450,0.558,1.022,0.951,��쓌,7.4,��
2017/03/13,14:10,1.062,1.752,1.189,2.075,1.452,0.559,1.022,0.949,��쓌,7.1,��
2017/03/13,14:20,1.066,1.751,1.188,2.076,1.452,0.558,1.023,0.949,��쓌,7.6,��
2017/03/13,14:30,1.067,1.756,1.189,2.078,1.450,0.558,1.023,0.949,��쓌,8.0,��
2017/03/13,14:40,1.065,1.754,1.190,2.079,1.447,0.557,1.022,0.948,��쓌,7.6,��
2017/03/13,14:50,1.066,1.752,1.188,2.079,1.449,0.558,1.022,0.951,��쓌,7.5,��
2017/03/13,15:00,1.066,1.754,1.189,2.076,1.448,0.557,1.024,0.951,��쓌,7.5,��
2017/03/13,15:10,1.066,1.755,1.189,2.076,1.448,0.558,1.023,0.951,��쓌,7.1,��
2017/03/13,15:20,1.066,1.751,1.188,2.077,1.450,0.558,1.024,0.950,��쓌,6.3,��
2017/03/13,15:30,1.065,1.751,1.184,2.078,1.451,0.558,1.025,0.950,��쓌,6.2,��
2017/03/13,15:40,1.066,1.752,1.186,2.077,1.452,0.560,1.024,0.949,��쓌,5.9,��
2017/03/13,15:50,1.066,1.754,1.186,2.075,1.452,0.558,1.022,0.951,��쓌,6.2,��
2017/03/13,16:00,1.065,1.752,1.186,2.079,1.448,0.559,1.024,0.949,�쓌,6.0,��
2017/03/13,16:10,1.066,1.751,1.189,2.079,1.454,0.556,1.022,0.950,��쓌,5.7,��
2017/03/13,16:20,1.064,1.753,1.188,2.076,1.448,0.559,1.024,0.952,��쓌,7.1,��
2017/03/13,16:30,1.066,1.749,1.187,2.077,1.452,0.559,1.024,0.948,��쓌,8.1,��
2017/03/13,16:40,1.064,1.752,1.188,2.076,1.452,0.560,1.025,0.950,��쓌,6.0,��
2017/03/13,16:50,1.067,1.753,1.188,2.075,1.451,0.561,1.023,0.947,��쓌,6.3,��
2017/03/13,17:00,1.065,1.753,1.185,2.078,1.452,0.560,1.024,0.949,��쓌,6.5,��
2017/03/13,17:10,1.064,1.751,1.186,2.080,1.452,0.558,1.023,0.950,��쓌,6.1,��
2017/03/13,17:20,1.064,1.752,1.189,2.076,1.452,0.558,1.025,0.948,��쓌,4.6,��
2017/03/13,17:30,1.064,1.752,1.186,2.074,1.451,0.560,1.023,0.951,��쓌,4.3,��
2017/03/13,17:40,1.066,1.751,1.186,2.076,1.451,0.559,1.024,0.950,��쓌,3.5,��
2017/03/13,17:50,1.065,1.752,1.187,2.076,1.450,0.560,1.024,0.950,��,3.4,��
2017/03/13,18:00,1.064,1.751,1.186,2.077,1.447,0.559,1.026,0.950,��,3.0,��
2017/03/13,18:10,1.066,1.753,1.189,2.076,1.450,0.559,1.024,0.951,��,3.5,��
2017/03/13,18:20,1.063,1.752,1.186,2.076,1.450,0.559,1.024,0.947,��,3.2,��
2017/03/13,18:30,1.065,1.751,1.188,2.077,1.451,0.559,1.026,0.951,��쓌,3.2,��
2017/03/13,18:40,1.064,1.751,1.186,2.075,1.450,0.559,1.024,0.948,��,2.6,��
2017/03/13,18:50,1.067,1.751,1.187,2.075,1.449,0.560,1.026,0.949,��,2.6,��
2017/03/13,19:00,1.063,1.755,1.189,2.075,1.449,0.558,1.024,0.950,��쐼,1.7,��
2017/03/13,19:10,1.062,1.750,1.186,2.077,1.450,0.558,1.026,0.949,��,1.7,��
2017/03/13,19:20,1.064,1.751,1.186,2.073,1.449,0.559,1.026,0.950,��,2.0,��
2017/03/13,19:30,1.063,1.750,1.183,2.078,1.449,0.557,1.024,0.947,��,2.2,��
2017/03/13,19:40,1.064,1.752,1.186,2.075,1.448,0.558,1.028,0.947,��,1.5,��
2017/03/13,19:50,1.064,1.751,1.187,2.076,1.449,0.558,1.025,0.949,��쓌,1.7,��
2017/03/13,20:00,1.063,1.750,1.187,2.075,1.448,0.558,1.025,0.949,��,1.2,��
2017/03/13,20:10,1.063,1.752,1.187,2.079,1.448,0.560,1.025,0.950,��,1.5,��
2017/03/13,20:20,1.064,1.749,1.185,2.076,1.448,0.558,1.026,0.949,��,1.5,��
2017/03/13,20:30,1.063,1.749,1.188,2.075,1.448,0.558,1.027,0.949,��쐼,1.4,��
2017/03/13,20:40,1.064,1.748,1.185,2.077,1.449,0.558,1.024,0.949,��쐼,1.5,��
2017/03/13,20:50,1.070,1.748,1.186,2.074,1.452,0.559,1.026,0.950,��쐼,1.5,��
2017/03/13,21:00,1.064,1.750,1.184,2.077,1.452,0.558,1.025,0.949,��쐼,1.4,��
2017/03/13,21:10,1.066,1.749,1.183,2.076,1.450,0.559,1.025,0.948,��쐼,1.5,��
2017/03/13,21:20,1.063,1.751,1.186,2.076,1.449,0.557,1.026,0.950,��쐼,1.5,��
2017/03/13,21:30,1.067,1.748,1.186,2.073,1.447,0.557,1.025,0.950,��,1.2,��
2017/03/13,21:40,1.064,1.753,1.186,2.076,1.448,0.558,1.024,0.949,��쐼,0.9,��
2017/03/13,21:50,1.067,1.749,1.187,2.075,1.450,0.557,1.026,0.949,�쐼,1.4,��
2017/03/13,22:00,1.065,1.750,1.185,2.074,1.448,0.558,1.026,0.950,��쐼,0.9,��
2017/03/13,22:10,1.063,1.750,1.187,2.077,1.448,0.557,1.026,0.949,�쐼,0.6,��
2017/03/13,22:20,1.066,1.750,1.186,2.074,1.447,0.558,1.024,0.950,�쐼,0.9,��
2017/03/13,22:30,1.066,1.750,1.186,2.076,1.450,0.560,1.025,0.949,�쐼,0.6,��
2017/03/13,22:40,1.066,1.751,1.187,2.074,1.451,0.557,1.027,0.950,��,0.6,��
2017/03/13,22:50,1.065,1.750,1.185,2.076,1.452,0.556,1.025,0.951,���쐼,0.9,��
2017/03/13,23:00,1.065,1.748,1.187,2.074,1.449,0.559,1.024,0.950,���쐼,0.9,��
2017/03/13,23:10,1.068,1.750,1.188,2.072,1.449,0.558,1.027,0.948,���쐼,1.1,��
2017/03/13,23:20,1.066,1.747,1.188,2.076,1.448,0.560,1.026,0.948,�k��,0.8,��
2017/03/13,23:30,1.066,1.750,1.185,2.075,1.449,0.558,1.025,0.950,�k��,0.9,��
2017/03/13,23:40,1.065,1.751,1.187,2.077,1.449,0.558,1.025,0.949,�k�k��,0.9,��
2017/03/13,23:50,1.063,1.749,1.189,2.074,1.448,0.558,1.025,0.950,�k��,1.5,��
